Flag for United Kingdom Weather past 2 weeks in Canterbury, England, United Kingdom

Now
46 °F

Cool.


Feels Like: 38 °F
Forecast: 40 / 46 °F
Wind: 22 mph from West

Location: Manston

Current Time: Mar 3, 2015 at 11:47:38 AM

Latest Report: Mar 3, 2015 at 11:00 AM


Visibility: 18 mi

Pressure: 29.94 "Hg

Humidity: 76%

Dew point: 39 °F

Location of CanterburyLocation

Historic Weather in Canterbury — Graph

°F

Canterbury temperature yesterday

Maximum temperature yesterday: 46 °F (at 2:00 PM)
Minimum temperature yesterday: 35 °F (at 6:00 AM)
Average temperature yesterday: 40 °F

Past Weeks' High & Low Weather Summary

 TemperatureHumidityPressure
High53 °F (Mar 1, 1:00 PM)99% (Feb 16, 11:00 AM)30.76 "Hg (Feb 16, 11:00 AM)
Low30 °F (Feb 22, 6:00 AM)45% (Mar 2, 5:00 PM)29.26 "Hg (Feb 23, 12:00 AM)
Average42 °F83%29.89 "Hg
* Reported Feb 16 10:00 AM — Mar 3 10:00 AM, Canterbury, Weather by CustomWeather, © 2015

Note: Actual official high and low records may vary slightly from our data, if they occured in-between our weather recording intervals... More about our weather records

Advertising

Canterbury weather history for previous 24 hours

 ConditionsComfort  
Time TempWeatherWind HumidityBarometerVisibility
10:00 AM
Tue, Mar 3
45 °FQuite cool.17 mph87%29.94 "Hg17 mi
9:00 AM42 °FQuite cool.13 mph92%29.94 "Hg28 mi
8:00 AM41 °FLots of rain. Cloudy.14 mph93%29.94 "Hg6 mi
7:00 AM39 °FChilly.12 mph94%29.94 "Hg19 mi
6:00 AM40 °FDrizzle. Overcast.14 mph92%29.96 "Hg2 mi
5:00 AM38 °FChilly.10 mph87%29.97 "Hg11 mi
4:00 AM37 °FChilly.7 mph85%29.98 "Hg11 mi
3:00 AM36 °FChilly.12 mph85%30.00 "Hg12 mi
2:00 AM38 °FChilly.15 mph79%30.01 "Hg16 mi
1:00 AM38 °FChilly.17 mph76%30.01 "Hg19 mi
12:00 AM38 °FChilly.17 mph72%30.01 "Hg28 mi
11:00 PM
Mon, Mar 2
38 °FChilly.16 mph73%29.99 "Hg25 mi
10:00 PM36 °FChilly.12 mph76%29.99 "Hg22 mi
9:00 PM37 °FChilly.12 mph73%29.98 "Hg22 mi
8:00 PM39 °FChilly.16 mph68%29.96 "Hg25 mi
7:00 PM40 °FQuite cool.14 mph60%29.93 "Hg28 mi
6:00 PM41 °FQuite cool.12 mph54%29.91 "Hg28 mi
5:00 PM44 °FQuite cool.18 mph45%29.88 "Hg25 mi
4:00 PM45 °FCool.22 mph49%29.86 "Hg31 mi
3:00 PM45 °FCool.25 mph46%29.83 "Hg19 mi
2:00 PM46 °FCool.29 mph47%29.80 "Hg16 mi
1:00 PM45 °FQuite cool.26 mph52%29.77 "Hg19 mi
12:00 PM45 °FCool.26 mph54%29.74 "Hg28 mi
11:00 AM44 °FQuite cool.24 mph68%29.71 "Hg25 mi
Weather by CustomWeather, © 2015

See weather overviewHow to use our weather pages